[[{"header":{"parameterUnit":"m.s-1","parameterCategory":2,"la1":30.2991,"la2":30.254,"lo1":-89.0895,"lo2":-89.0444,"dy":0.0017,"dx":0.0017,"nx":28,"ny":28,"refTime":"2024-06-04T09:00:00:Z","depth":"0","parameterNumber":2,"parameterNumberName":"U-component_of_CURRENTS"},"data":[0,0,0,0,0,0,0,0,0,0,0,0,0,0,0,0,0,0,0,0,0,0,0,0,0,0,0,0,0,0,0,0,0,0,0,0,0,0,0,0,0,0,0,0,0,0,0,0,0,0,0,0,0,0,0,0,0,0,-0.2359,-0.2359,0,-0.2384,-0.2384,-0.2384,-0.2358,-0.2358,-0.2357,-0.2356,-0.2317,-0.2316,-0.2316,0,0,0,0,0,0,0,0,0,0,0,0,0,-0.2283,-0.2284,-0.2359,-0.2359,-0.236,-0.2384,-0.2384,-0.2384,-0.2358,-0.2358,-0.2357,-0.2356,-0.2317,-0.2317,-0.2316,0,0,0,0,0,0,0,0,0,0,0,0,0,-0.231,-0.2284,-0.2358,-0.2352,-0.2352,-0.2384,-0.2384,-0.2384,-0.2359,-0.2358,-0.2356,-0.2355,-0.2317,-0.2317,-0.2316,-0.2334,0,0,-0.2314,-0.2314,0,0,0,0,0,0,0,0,-0.2308,-0.2312,-0.2353,-0.2353,-0.2353,-0.237,-0.2343,-0.2365,-0.2359,-0.2353,-0.2356,-0.2355,-0.2331,-0.233,-0.2333,-0.2332,-0.2331,-0.2314,-0.2314,-0.2314,-0.2313,0,0,0,0,0,0,0,-0.2306,-0.2311,-0.2365,-0.2353,-0.2354,-0.2347,-0.2349,-0.2347,-0.2344,-0.2353,-0.2352,-0.2361,-0.233,-0.2334,-0.2332,-0.233,-0.2314,-0.2314,-0.2313,-0.2313,-0.2345,-0.2346,0,0,0,0,0,0,-0.2311,-0.2309,-0.2365,-0.2366,-0.2331,-0.2349,-0.2352,-0.2363,-0.2345,-0.2343,-0.2362,-0.2359,-0.2335,-0.2333,-0.233,-0.2355,-0.2314,-0.2313,-0.2313,-0.2344,-0.2345,-0.2347,0,0,0,0,0,0,-0.231,-0.2316,-0.2364,-0.2341,-0.2347,-0.2352,-0.2365,-0.2364,-0.2363,-0.2353,-0.2349,-0.2361,-0.2334,-0.2331,-0.2333,-0.2352,-0.2313,-0.2312,-0.2343,-0.2344,-0.2346,-0.24,0,0,0,0,0,0,-0.2307,-0.2315,-0.2321,-0.2341,-0.2348,-0.2385,-0.2366,-0.2365,-0.2372,-0.2369,-0.2352,-0.2347,-0.2333,-0.2335,-0.2333,-0.2351,-0.2312,-0.2341,-0.2343,-0.2345,-0.2397,-0.2404,-0.2409,0,0,0,0,0,-0.2305,-0.2318,-0.2321,-0.2327,-0.2357,-0.2386,-0.2389,-0.2387,-0.2373,-0.238,-0.2369,-0.2348,-0.2347,-0.2335,-0.2333,-0.2351,-0.234,-0.2343,-0.2345,-0.2394,-0.2402,-0.2409,0,0,0,0,0,0,-0.228,-0.2318,-0.2321,-0.2342,-0.2365,-0.2383,-0.2387,-0.239,-0.2388,-0.238,-0.2362,-0.2358,-0.2369,-0.2355,-0.2342,-0.2368,-0.2341,-0.2343,-0.2379,-0.2386,-0.2392,-0.2389,-0.2311,0,0,0,0,0,-0.2282,-0.2299,-0.2335,-0.2347,-0.2361,-0.2374,-0.2383,-0.2389,-0.2395,-0.2392,-0.2383,-0.2375,-0.2381,-0.2378,-0.2377,-0.239,-0.2363,-0.2402,-0.2408,-0.2413,-0.241,-0.2397,-0.2401,-0.2355,-0.2355,-0.2355,0,0,-0.2274,-0.2295,-0.2304,-0.2343,-0.2354,-0.2388,-0.2375,-0.2395,-0.2419,-0.2389,-0.2403,-0.2397,-0.239,-0.2407,-0.2411,-0.2395,-0.2411,-0.2416,-0.2421,-0.2415,-0.24,-0.2405,-0.2408,-0.2357,-0.2357,-0.2357,0,0,-0.2273,-0.2288,-0.2308,-0.2337,-0.237,-0.2388,-0.2397,-0.2423,-0.2428,-0.2451,-0.2438,-0.2442,-0.2444,-0.2447,-0.2449,-0.2489,-0.2447,-0.249,-0.2516,-0.2504,-0.2507,-0.251,-0.2473,-0.2472,-0.2491,-0.2491,-0.2491,0,-0.226,-0.2295,-0.2316,-0.2351,-0.2377,-0.2392,-0.2427,-0.2445,-0.2467,-0.2474,-0.246,-0.2473,-0.2466,-0.2491,-0.2506,-0.2503,-0.2477,-0.2488,-0.2511,-0.2513,-0.2515,-0.2476,-0.2474,-0.2494,-0.2494,-0.2493,-0.2493,0,-0.2286,-0.2317,-0.233,-0.2382,-0.2413,-0.2442,-0.2484,-0.2503,-0.2508,-0.2522,-0.2541,-0.2536,-0.2538,-0.2546,-0.2537,-0.2555,-0.2526,-0.2521,-0.2489,-0.2522,-0.248,-0.2477,-0.2498,-0.2497,-0.2496,-0.2496,0,0,-0.2241,-0.2333,-0.2333,-0.2366,-0.2434,-0.2458,-0.2508,-0.2551,-0.2568,-0.2586,-0.26,-0.2621,-0.2604,-0.2604,-0.2596,-0.259,-0.258,-0.2561,-0.2559,-0.2519,-0.2531,-0.2454,-0.2443,-0.2577,-0.2577,-0.2577,-0.2494,0,-0.2248,-0.2317,-0.2365,-0.2422,-0.2461,-0.2507,-0.2552,-0.2592,-0.261,-0.2625,-0.2629,-0.2636,-0.2632,-0.2625,-0.2624,-0.2591,-0.2576,-0.2602,-0.251,-0.2506,-0.243,-0.2438,-0.2335,-0.2247,-0.2491,-0.249,-0.249,0,-0.225,-0.2299,-0.2363,-0.2447,-0.2466,-0.2505,-0.2563,-0.2604,-0.2643,-0.2655,-0.2667,-0.2662,-0.2665,-0.2647,-0.2611,-0.2624,-0.2581,-0.2553,-0.2549,-0.2454,-0.2424,-0.2255,-0.2232,-0.2222,-0.2484,-0.2485,-0.2485,0,-0.2194,-0.2289,-0.2336,-0.2368,-0.247,-0.2499,-0.2542,-0.26,-0.263,-0.2658,-0.2667,-0.2675,-0.266,-0.263,-0.258,-0.259,-0.2519,-0.2524,-0.2413,-0.2406,-0.2287,-0.2269,-0.2236,-0.2489,-0.2489,-0.249,-0.249,0,-0.2179,-0.2209,-0.2311,-0.2337,-0.2385,-0.2464,-0.2506,-0.2551,-0.2607,-0.2622,-0.2663,-0.266,-0.2654,-0.2619,-0.2576,-0.2475,-0.2513,-0.2408,-0.2381,-0.2302,-0.2288,-0.2248,-0.2278,-0.2486,-0.2487,-0.2488,-0.2488,0,-0.2102,-0.2176,-0.2229,-0.2332,-0.236,-0.2385,-0.2483,-0.2506,-0.2573,-0.259,-0.2598,-0.2636,-0.2579,-0.2558,-0.2492,-0.2449,-0.2328,-0.2329,-0.2224,-0.2186,-0.2069,-0.2106,-0.2038,-0.1983,-0.2186,-0.2184,-0.2182,0,-0.2068,-0.209,-0.2194,-0.2216,-0.2258,-0.2317,-0.2353,-0.2461,-0.2486,-0.2558,-0.2547,-0.2533,-0.2482,-0.2374,-0.2293,-0.219,-0.2212,-0.2051,-0.2057,-0.2039,-0.2061,-0.21,-0.2062,-0.1916,-0.1912,-0.1909,-0.1906,0,-0.1984,-0.2021,-0.2059,-0.2114,-0.2155,-0.2206,-0.2264,-0.2296,-0.2398,-0.242,-0.2412,-0.2383,-0.2298,-0.2157,-0.2057,-0.1982,-0.2006,-0.1978,-0.199,-0.1868,-0.1877,-0.1818,-0.1992,-0.1877,-0.188,-0.1882,-0.1884,-0.1885,-0.1891,-0.1898,-0.1947,-0.1981,-0.2027,-0.205,-0.2037,-0.2113,-0.2135,-0.212,-0.2203,-0.2105,-0.2061,-0.1893,-0.1835,-0.1704,-0.1773,-0.1651,-0.1699,-0.1743,-0.1684,-0.1783,-0.1626,-0.1628,-0.1629,-0.163,-0.1631,0,-0.1766,-0.1783,-0.1808,-0.1841,-0.1823,-0.1897,-0.193,-0.1874,-0.1837,-0.1863,-0.1829,-0.1765,-0.1666,-0.1636,-0.1544,-0.1468,-0.1449,-0.1432,-0.1475,-0.1451,-0.1544,-0.1526,-0.1303,-0.1303,-0.1303,-0.1303,-0.1303,-0.1303,-0.1696,-0.1669,-0.1686,-0.1611,-0.1624,-0.1543,-0.1521,-0.1456,-0.1426,-0.1323,-0.1291,-0.1284,-0.137,-0.1539,-0.1463,-0.1384,-0.1375,-0.1316,-0.1366,-0.1456,-0.1481,-0.1506,-0.1495,-0.1269,-0.1269,-0.1206,-0.1206,-0.1206]},{"header":{"parameterUnit":"m.s-1","parameterCategory":2,"la1":30.2991,"la2":30.254,"lo1":-89.0895,"lo2":-89.0444,"dy":0.0017,"dx":0.0017,"nx":28,"ny":28,"refTime":"2024-06-04T09:00:00:Z","depth":"0","parameterNumber":3,"parameterNumberName":"V-component_of_CURRENTS"},"data":[0,0,0,0,0,0,0,0,0,0,0,0,0,0,0,0,0,0,0,0,0,0,0,0,0,0,0,0,0,0,0,0,0,0,0,0,0,0,0,0,0,0,0,0,0,0,0,0,0,0,0,0,0,0,0,0,0,0,-0.007,-0.007,0,0.0006,0.0007,0.0008,0.0069,0.0069,0.007,0.007,0.0195,0.0198,0.0201,0,0,0,0,0,0,0,0,0,0,0,0,0,-0.011,-0.0109,-0.007,-0.007,-0.0069,0.0006,0.0007,0.0008,0.0068,0.0069,0.007,0.007,0.0194,0.0198,0.0201,0,0,0,0,0,0,0,0,0,0,0,0,0,-0.0068,-0.0109,-0.0071,-0.0031,-0.0026,0.0006,0.0007,0.0009,0.0068,0.0069,0.007,0.007,0.0193,0.0198,0.0202,0.0214,0,0,0.0215,0.0217,0,0,0,0,0,0,0,0,-0.007,-0.0066,-0.0037,-0.0033,-0.0029,0.0027,0.0039,0.0079,0.0068,0.0034,0.007,0.0071,0.0142,0.0151,0.0165,0.022,0.0226,0.0216,0.0218,0.022,0.0221,0,0,0,0,0,0,0,-0.0073,-0.0069,-0.0039,-0.0037,-0.0031,0.0002,0.0008,0.0047,0.0085,0.0037,0.0041,0.0047,0.0145,0.0161,0.0168,0.0228,0.0215,0.0219,0.0222,0.0224,0.0322,0.0323,0,0,0,0,0,0,-0.0089,-0.0072,-0.0041,-0.0037,-0.005,0.0002,0.0009,0.001,0.0084,0.0095,0.0046,0.005,0.0153,0.0163,0.0173,0.0202,0.022,0.0224,0.0227,0.0322,0.0322,0.0323,0,0,0,0,0,0,-0.009,-0.0087,-0.0044,-0.0053,-0.0045,0.0001,0.0002,0.0011,0.0027,0.009,0.0103,0.0053,0.0154,0.0167,0.0207,0.0207,0.0226,0.023,0.0322,0.0322,0.0323,0.0255,0,0,0,0,0,0,-0.0092,-0.0089,-0.0096,-0.0055,-0.0046,-0.0035,0.0001,0.0012,0.0028,0.0033,0.01,0.0112,0.0155,0.02,0.0211,0.0214,0.0233,0.0322,0.0322,0.0322,0.0257,0.0252,0.0248,0,0,0,0,0,-0.0094,-0.0111,-0.0097,-0.0093,-0.0057,-0.0036,-0.0028,0.0009,0.0028,0.0027,0.0076,0.011,0.0208,0.0203,0.0216,0.022,0.0322,0.0322,0.0322,0.0259,0.0253,0.0248,0,0,0,0,0,0,-0.0134,-0.0105,-0.0089,-0.0097,-0.0072,-0.0026,-0.0025,0.0002,0.004,0.0046,0.0109,0.0124,0.0159,0.0198,0.019,0.0249,0.0272,0.0274,0.0219,0.0214,0.021,0.0196,0.0237,0,0,0,0,0,-0.0147,-0.0151,-0.0115,-0.0123,-0.0114,-0.007,-0.0058,-0.0033,0.0006,0.0024,0.007,0.0123,0.0168,0.0196,0.0237,0.0269,0.0315,0.0281,0.0277,0.0273,0.0271,0.0345,0.0347,0.0323,0.0323,0.0323,0,0,-0.0165,-0.0151,-0.0152,-0.0131,-0.0109,-0.0104,-0.0061,-0.0049,-0.0038,0.0031,0.0058,0.0105,0.0172,0.0207,0.0226,0.0241,0.0302,0.0273,0.0269,0.027,0.0345,0.0347,0.035,0.0323,0.0323,0.0323,0,0,-0.021,-0.0191,-0.021,-0.0191,-0.0166,-0.0136,-0.0136,-0.0094,-0.0068,-0.0039,0.0017,0.0066,0.0127,0.0182,0.0217,0.0216,0.0272,0.0225,0.0201,0.0271,0.0274,0.0277,0.0325,0.0333,0.0229,0.0229,0.0229,0,-0.0234,-0.025,-0.0213,-0.0222,-0.0211,-0.0155,-0.0166,-0.0132,-0.0082,-0.0055,-0.0041,0.0067,0.0119,0.0184,0.0182,0.0208,0.0247,0.0212,0.0265,0.0269,0.0274,0.0323,0.0332,0.0226,0.0226,0.0227,0.0227,0,-0.0287,-0.0297,-0.0306,-0.0296,-0.0277,-0.0279,-0.0227,-0.0203,-0.0164,-0.012,-0.0058,0.0016,0.0086,0.0109,0.0144,0.0201,0.0217,0.0245,0.0275,0.0272,0.0324,0.0335,0.0221,0.0222,0.0223,0.0224,0,0,-0.035,-0.0347,-0.035,-0.0357,-0.0315,-0.0308,-0.0281,-0.0237,-0.0211,-0.0153,-0.011,-0.0028,0.0021,0.0064,0.0124,0.0184,0.0242,0.0217,0.0223,0.0259,0.0382,0.0427,0.0444,0.0278,0.028,0.0281,0.0401,0,-0.0404,-0.0446,-0.0418,-0.0442,-0.0455,-0.0388,-0.0364,-0.0309,-0.025,-0.0194,-0.0097,-0.0039,0.0004,0.0039,0.0106,0.0211,0.027,0.0206,0.0385,0.039,0.0427,0.0459,0.0498,0.0612,0.0412,0.0414,0.0416,0,-0.0463,-0.0482,-0.0522,-0.051,-0.0507,-0.0501,-0.0442,-0.0415,-0.0311,-0.0261,-0.0176,-0.0097,0.0006,0.0038,0.0215,0.017,0.0264,0.0343,0.035,0.0426,0.0458,0.0587,0.064,0.0793,0.0434,0.0432,0.0431,0,-0.0528,-0.055,-0.0586,-0.0583,-0.0558,-0.0549,-0.0525,-0.0436,-0.0402,-0.0299,-0.0257,-0.0124,-0.0048,0.0084,0.025,0.0234,0.0445,0.0451,0.058,0.0584,0.0671,0.0679,0.0891,0.0575,0.0574,0.0574,0.0574,0,-0.0593,-0.0621,-0.0621,-0.0641,-0.0667,-0.0614,-0.0607,-0.0557,-0.0468,-0.0419,-0.0301,-0.0222,-0.0032,0.0117,0.0248,0.0457,0.0453,0.0585,0.0628,0.0646,0.0651,0.0831,0.0877,0.0578,0.0578,0.0577,0.0576,0,-0.0659,-0.0661,-0.0705,-0.0702,-0.0703,-0.0719,-0.0679,-0.0661,-0.0571,-0.05,-0.0468,-0.0282,-0.0083,0.0111,0.0349,0.0467,0.0753,0.0724,0.0721,0.0762,0.1005,0.1043,0.1267,0.1365,0.0877,0.088,0.0881,0,-0.07,-0.073,-0.0766,-0.0794,-0.0798,-0.0808,-0.0806,-0.0728,-0.0691,-0.0526,-0.0491,-0.0281,-0.0098,0.026,0.0507,0.0764,0.086,0.0931,0.0913,0.1041,0.1116,0.1126,0.1192,0.0997,0.0999,0.1001,0.1003,0,-0.0769,-0.0779,-0.0815,-0.088,-0.0903,-0.0922,-0.0904,-0.0888,-0.0768,-0.0662,-0.0474,-0.0308,0.0052,0.0395,0.0717,0.0857,0.1045,0.098,0.1135,0.1249,0.1255,0.1361,0.0873,0.1021,0.1019,0.1018,0.1017,0.1016,-0.0812,-0.0859,-0.0904,-0.0959,-0.0991,-0.1008,-0.0988,-0.0911,-0.0816,-0.0566,-0.047,-0.0123,0.0305,0.0783,0.0952,0.129,0.1224,0.1376,0.1416,0.1417,0.1509,0.1046,0.1228,0.1227,0.1226,0.1226,0.1225,0,-0.0861,-0.0908,-0.0975,-0.1029,-0.1062,-0.106,-0.1022,-0.0921,-0.0753,-0.0476,-0.0234,0.0288,0.0717,0.1104,0.1536,0.1719,0.1755,0.1795,0.1832,0.1884,0.1511,0.1514,0.1741,0.1741,0.174,0.174,0.174,0.174,-0.0887,-0.0961,-0.0995,-0.1064,-0.1092,-0.106,-0.1017,-0.0812,-0.0576,-0.0106,0.0283,0.0557,0.1002,0.1659,0.2067,0.2102,0.2272,0.2237,0.2334,0.2083,0.2046,0.2012,0.203,0.236,0.2361,0.27,0.2704,0.2706]}],[{"header":{"parameterUnit":"m.s-1","parameterCategory":2,"la1":30.2991,"la2":30.254,"lo1":-89.0895,"lo2":-89.0444,"dy":0.0017,"dx":0.0017,"nx":28,"ny":28,"refTime":"2024-06-04T09:00:00:Z","depth":"2","parameterNumber":2,"parameterNumberName":"U-component_of_CURRENTS"},"data":[0,0,0,0,0,0,0,0,0,0,0,0,0,0,0,0,0,0,0,0,0,0,0,0,0,0,0,0,0,0,0,0,0,0,0,0,0,0,0,0,0,0,0,0,0,0,0,0,0,0,0,0,0,0,0,0,0,0,-0.2198,-0.2199,0,-0.223,-0.223,-0.223,-0.2212,-0.2211,-0.221,-0.221,-0.2183,-0.2183,-0.2183,0,0,0,0,0,0,0,0,0,0,0,0,0,-0.2114,-0.2116,-0.2198,-0.2199,-0.22,-0.223,-0.223,-0.223,-0.2212,-0.2211,-0.221,-0.2209,-0.2183,-0.2183,-0.2183,0,0,0,0,0,0,0,0,0,0,0,0,0,-0.2146,-0.2116,-0.2198,-0.2196,-0.2197,-0.223,-0.223,-0.223,-0.2212,-0.2211,-0.221,-0.2209,-0.2183,-0.2183,-0.2183,-0.2201,0,0,-0.2182,-0.2182,0,0,0,0,0,0,0,0,-0.2144,-0.2149,-0.2196,-0.2196,-0.2197,-0.2219,-0.2191,-0.2219,-0.2212,-0.2203,-0.221,-0.2209,-0.2192,-0.2191,-0.2196,-0.2199,-0.2198,-0.2182,-0.2182,-0.2182,-0.2182,0,0,0,0,0,0,0,-0.2142,-0.2147,-0.2208,-0.2197,-0.2197,-0.2192,-0.2195,-0.2196,-0.2199,-0.2204,-0.2203,-0.2212,-0.2192,-0.2196,-0.2195,-0.2198,-0.2182,-0.2182,-0.2182,-0.2182,-0.2221,-0.2222,0,0,0,0,0,0,-0.2146,-0.2145,-0.2207,-0.2209,-0.2171,-0.2194,-0.2198,-0.221,-0.22,-0.2199,-0.2213,-0.2211,-0.2197,-0.2195,-0.2194,-0.2223,-0.2182,-0.2182,-0.2182,-0.222,-0.2221,-0.2222,0,0,0,0,0,0,-0.2144,-0.2151,-0.2206,-0.218,-0.2187,-0.2197,-0.2211,-0.2211,-0.2216,-0.2208,-0.2205,-0.2217,-0.2196,-0.2194,-0.2202,-0.2222,-0.2182,-0.2182,-0.2218,-0.222,-0.2222,-0.2276,0,0,0,0,0,0,-0.2142,-0.2151,-0.2158,-0.218,-0.2188,-0.223,-0.2212,-0.2213,-0.2224,-0.2222,-0.2211,-0.2208,-0.2195,-0.2203,-0.2202,-0.2221,-0.2182,-0.2217,-0.2219,-0.2221,-0.2273,-0.228,-0.2285,0,0,0,0,0,-0.2139,-0.2155,-0.2158,-0.2166,-0.22,-0.2231,-0.2235,-0.2236,-0.2225,-0.2235,-0.2228,-0.2208,-0.2216,-0.2204,-0.2202,-0.2222,-0.2216,-0.2219,-0.2221,-0.227,-0.2278,-0.2285,0,0,0,0,0,0,-0.2118,-0.2156,-0.216,-0.2185,-0.2209,-0.2229,-0.2237,-0.2241,-0.2245,-0.2239,-0.2223,-0.2221,-0.2236,-0.2223,-0.2211,-0.224,-0.2213,-0.2215,-0.225,-0.2258,-0.2264,-0.226,-0.2181,0,0,0,0,0,-0.212,-0.214,-0.2175,-0.2192,-0.2206,-0.2222,-0.2234,-0.2241,-0.225,-0.225,-0.2245,-0.2241,-0.2248,-0.2247,-0.2249,-0.2265,-0.2239,-0.2277,-0.2283,-0.2288,-0.2285,-0.2274,-0.2279,-0.2231,-0.2231,-0.2231,0,0,-0.2114,-0.2138,-0.2148,-0.2189,-0.2203,-0.2236,-0.2226,-0.225,-0.2274,-0.2247,-0.2267,-0.2263,-0.2258,-0.2277,-0.2283,-0.2267,-0.2288,-0.2291,-0.2296,-0.229,-0.2278,-0.2282,-0.2286,-0.2233,-0.2232,-0.2232,0,0,-0.2119,-0.2137,-0.2159,-0.2188,-0.2224,-0.2241,-0.2252,-0.228,-0.2287,-0.2314,-0.2302,-0.2309,-0.2317,-0.232,-0.2321,-0.2363,-0.2323,-0.2364,-0.2389,-0.238,-0.2383,-0.2386,-0.2353,-0.2353,-0.2365,-0.2365,-0.2365,0,-0.2109,-0.2146,-0.2169,-0.2204,-0.223,-0.2247,-0.2281,-0.2301,-0.2327,-0.2336,-0.2325,-0.2343,-0.2338,-0.2363,-0.2378,-0.2376,-0.2353,-0.2362,-0.2387,-0.2389,-0.2391,-0.2357,-0.2355,-0.2368,-0.2367,-0.2367,-0.2367,0,-0.2138,-0.217,-0.2186,-0.2238,-0.2269,-0.2299,-0.234,-0.2362,-0.237,-0.2385,-0.2408,-0.2405,-0.2409,-0.2418,-0.241,-0.243,-0.2403,-0.2397,-0.2366,-0.2399,-0.2361,-0.2358,-0.2372,-0.2371,-0.237,-0.2369,0,0,-0.21,-0.219,-0.2192,-0.2223,-0.2291,-0.2314,-0.2365,-0.2408,-0.2426,-0.2448,-0.2464,-0.2487,-0.2473,-0.2475,-0.2468,-0.2464,-0.2459,-0.2437,-0.2435,-0.24,-0.2417,-0.2341,-0.233,-0.2456,-0.2456,-0.2456,-0.2383,0,-0.211,-0.2178,-0.2224,-0.2281,-0.2318,-0.2363,-0.2407,-0.2447,-0.2468,-0.2486,-0.2492,-0.2503,-0.25,-0.2496,-0.2497,-0.2468,-0.2456,-0.2478,-0.2394,-0.2391,-0.2316,-0.2326,-0.2166,-0.2083,-0.238,-0.238,-0.2379,0,-0.2116,-0.2163,-0.2225,-0.2305,-0.2324,-0.2362,-0.2419,-0.2459,-0.25,-0.2514,-0.253,-0.2528,-0.2534,-0.2519,-0.2489,-0.2501,-0.2463,-0.2438,-0.2435,-0.234,-0.231,-0.2099,-0.2067,-0.2375,-0.2375,-0.2375,-0.2376,0,-0.2065,-0.2156,-0.2202,-0.2232,-0.2329,-0.2357,-0.24,-0.2457,-0.2487,-0.2519,-0.2531,-0.2542,-0.2532,-0.2506,-0.2463,-0.2472,-0.2411,-0.2414,-0.2309,-0.2302,-0.2137,-0.2115,-0.2385,-0.2385,-0.2385,-0.2386,-0.2386,0,-0.2053,-0.2084,-0.218,-0.2205,-0.225,-0.2325,-0.2368,-0.2412,-0.2468,-0.2485,-0.2529,-0.2528,-0.2528,-0.2498,-0.246,-0.2367,-0.2405,-0.2305,-0.228,-0.2151,-0.2132,-0.2366,-0.2365,-0.2383,-0.2383,-0.2384,-0.2384,0,-0.1984,-0.2054,-0.2104,-0.2201,-0.2228,-0.2253,-0.2347,-0.237,-0.2438,-0.2457,-0.2467,-0.2509,-0.2459,-0.2443,-0.2385,-0.2344,-0.2276,-0.2233,-0.2072,-0.2029,-0.2173,-0.2176,-0.2105,-0.2102,-0.2099,-0.2096,-0.2095,0,-0.1954,-0.1976,-0.2073,-0.2093,-0.2134,-0.2191,-0.2226,-0.2329,-0.2354,-0.2428,-0.2418,-0.2411,-0.2364,-0.2267,-0.2188,-0.2092,-0.2174,-0.1906,-0.1901,-0.2162,-0.2145,-0.2152,-0.2159,-0.1698,-0.1693,-0.1689,-0.1685,0,-0.1879,-0.1913,-0.1948,-0.1999,-0.2039,-0.2087,-0.2143,-0.2173,-0.227,-0.2294,-0.2289,-0.2263,-0.2182,-0.2014,-0.192,-0.1846,-0.1912,-0.1818,-0.2119,-0.1804,-0.1775,-0.176,-0.178,-0.1649,-0.1652,-0.1655,-0.1657,-0.1659,-0.1795,-0.1799,-0.1843,-0.1874,-0.192,-0.1942,-0.1927,-0.1999,-0.202,-0.2008,-0.2085,-0.1974,-0.1957,-0.1704,-0.1614,-0.1535,-0.1662,-0.1594,-0.1607,-0.1625,-0.1602,-0.1571,-0.14,-0.1402,-0.1404,-0.1406,-0.1407,0,-0.1678,-0.1692,-0.1713,-0.1741,-0.1723,-0.1796,-0.1827,-0.1775,-0.1738,-0.1766,-0.1732,-0.1525,-0.143,-0.1402,-0.1232,-0.1213,-0.1209,-0.1157,-0.1164,-0.12,-0.1232,-0.1191,-0.0878,-0.0876,-0.0875,-0.0874,0,0,-0.1613,-0.1582,-0.1593,-0.1517,-0.153,-0.145,-0.1428,-0.1379,-0.1357,-0.1266,-0.1209,-0.1312,-0.1341,-0.1108,-0.1067,-0.0944,-0.1054,-0.0886,-0.1307,-0.1348,-0.1378,-0.1476,-0.1451,0,0,0,0,0]},{"header":{"parameterUnit":"m.s-1","parameterCategory":2,"la1":30.2991,"la2":30.254,"lo1":-89.0895,"lo2":-89.0444,"dy":0.0017,"dx":0.0017,"nx":28,"ny":28,"refTime":"2024-06-04T09:00:00:Z","depth":"2","parameterNumber":3,"parameterNumberName":"V-component_of_CURRENTS"},"data":[0,0,0,0,0,0,0,0,0,0,0,0,0,0,0,0,0,0,0,0,0,0,0,0,0,0,0,0,0,0,0,0,0,0,0,0,0,0,0,0,0,0,0,0,0,0,0,0,0,0,0,0,0,0,0,0,0,0,-0.0171,-0.017,0,-0.0092,-0.0091,-0.009,-0.0034,-0.0033,-0.0033,-0.0033,0.0092,0.0095,0.0098,0,0,0,0,0,0,0,0,0,0,0,0,0,-0.0221,-0.022,-0.0171,-0.017,-0.017,-0.0093,-0.0091,-0.009,-0.0034,-0.0033,-0.0033,-0.0033,0.0091,0.0094,0.0098,0,0,0,0,0,0,0,0,0,0,0,0,0,-0.0175,-0.022,-0.0171,-0.0133,-0.0129,-0.0093,-0.0091,-0.009,-0.0034,-0.0033,-0.0033,-0.0032,0.0089,0.0094,0.0098,0.0116,0,0,0.0112,0.0114,0,0,0,0,0,0,0,0,-0.0178,-0.0173,-0.014,-0.0136,-0.0131,-0.0074,-0.0063,-0.0019,-0.0034,-0.0069,-0.0033,-0.0032,0.0039,0.0048,0.0063,0.0122,0.0127,0.0112,0.0115,0.0117,0.0118,0,0,0,0,0,0,0,-0.0181,-0.0176,-0.0139,-0.0139,-0.0134,-0.0102,-0.0095,-0.0054,-0.0017,-0.0066,-0.0062,-0.0055,0.0042,0.0058,0.0066,0.0129,0.0112,0.0116,0.0119,0.0121,0.0225,0.0225,0,0,0,0,0,0,-0.0197,-0.018,-0.0141,-0.0136,-0.0155,-0.0102,-0.0094,-0.0091,-0.0018,-0.0007,-0.0056,-0.0053,0.0051,0.0061,0.0071,0.0102,0.0117,0.0121,0.0124,0.0225,0.0225,0.0225,0,0,0,0,0,0,-0.0199,-0.0195,-0.0144,-0.0157,-0.0148,-0.0102,-0.0099,-0.009,-0.0073,-0.0011,0.0001,-0.0048,0.0051,0.0065,0.0107,0.0107,0.0123,0.0127,0.0224,0.0225,0.0225,0.016,0,0,0,0,0,0,-0.02,-0.0196,-0.0201,-0.0158,-0.0148,-0.0131,-0.0099,-0.0089,-0.0071,-0.0066,-0.0001,0.0011,0.0053,0.01,0.0111,0.0113,0.0131,0.0224,0.0225,0.0225,0.0162,0.0158,0.0154,0,0,0,0,0,-0.0202,-0.0214,-0.0201,-0.0197,-0.0156,-0.0131,-0.0124,-0.0087,-0.0071,-0.0069,-0.0022,0.0009,0.0109,0.0103,0.0117,0.012,0.0224,0.0225,0.0225,0.0164,0.0158,0.0154,0,0,0,0,0,0,-0.0239,-0.0208,-0.0194,-0.0195,-0.0169,-0.0122,-0.0119,-0.0093,-0.0055,-0.0049,0.0011,0.0026,0.0062,0.01,0.0093,0.0151,0.0172,0.0174,0.0121,0.0116,0.0112,0.0097,0.0135,0,0,0,0,0,-0.0251,-0.0252,-0.0214,-0.0217,-0.0207,-0.0164,-0.015,-0.0126,-0.0086,-0.0069,-0.0023,0.0028,0.0073,0.01,0.0141,0.0175,0.0217,0.0186,0.0182,0.0179,0.0176,0.0242,0.0244,0.0225,0.0225,0.0225,0,0,-0.0267,-0.025,-0.0251,-0.0225,-0.0202,-0.0194,-0.0154,-0.0139,-0.0127,-0.0061,-0.0033,0.0013,0.0077,0.0112,0.0132,0.0146,0.0204,0.0179,0.0175,0.0175,0.0243,0.0245,0.0246,0.0225,0.0225,0.0225,0,0,-0.0305,-0.0285,-0.0299,-0.0279,-0.0251,-0.0221,-0.0221,-0.0177,-0.0152,-0.012,-0.007,-0.0022,0.004,0.0091,0.0124,0.0125,0.0177,0.0135,0.011,0.0174,0.0176,0.0179,0.0223,0.023,0.0138,0.0138,0.0138,0,-0.0327,-0.0337,-0.0299,-0.0304,-0.0292,-0.0239,-0.0246,-0.0213,-0.016,-0.0137,-0.0122,-0.0018,0.0032,0.0092,0.009,0.0117,0.0153,0.012,0.0168,0.0172,0.0175,0.022,0.0229,0.0135,0.0136,0.0136,0.0136,0,-0.0369,-0.0376,-0.0382,-0.0369,-0.0349,-0.0348,-0.0297,-0.0274,-0.0238,-0.0196,-0.0138,-0.0065,-0.0001,0.0022,0.0057,0.0107,0.0123,0.015,0.0177,0.0173,0.0221,0.0231,0.0131,0.0132,0.0133,0.0134,0,0,-0.0426,-0.0417,-0.042,-0.0426,-0.0383,-0.0375,-0.0349,-0.0308,-0.0287,-0.0227,-0.0191,-0.0111,-0.0066,-0.0025,0.0032,0.0088,0.014,0.0121,0.0126,0.0157,0.0267,0.03,0.0314,0.0174,0.0176,0.0177,0.0286,0,-0.0474,-0.0508,-0.0479,-0.0501,-0.0511,-0.0448,-0.0427,-0.0377,-0.0322,-0.0272,-0.0181,-0.0127,-0.0083,-0.005,0.0012,0.0111,0.0165,0.0107,0.0273,0.0277,0.0302,0.0327,0.0293,0.0389,0.0296,0.0298,0.0299,0,-0.0525,-0.0541,-0.0576,-0.0566,-0.0563,-0.0557,-0.0507,-0.0482,-0.0388,-0.0342,-0.0264,-0.0188,-0.0093,-0.0058,0.0107,0.0066,0.0155,0.023,0.0237,0.0299,0.0329,0.0382,0.0412,0.0316,0.0315,0.0314,0.0312,0,-0.0588,-0.0607,-0.0639,-0.0636,-0.0612,-0.0606,-0.0584,-0.0505,-0.0476,-0.0382,-0.0344,-0.0221,-0.015,-0.0025,0.0134,0.0121,0.0316,0.0325,0.0437,0.044,0.046,0.0462,0.0439,0.0438,0.0438,0.0438,0.0438,0,-0.0649,-0.0676,-0.0674,-0.0692,-0.0721,-0.067,-0.0668,-0.0624,-0.0544,-0.0502,-0.0389,-0.0318,-0.0137,0.0001,0.0128,0.0319,0.0319,0.044,0.0479,0.0436,0.0434,0.0411,0.0406,0.0442,0.0441,0.044,0.044,0,-0.0714,-0.0713,-0.0754,-0.0752,-0.0754,-0.0773,-0.0739,-0.0725,-0.0643,-0.0581,-0.0551,-0.0378,-0.0194,-0.0011,0.0212,0.0321,0.0493,0.0558,0.0487,0.0516,0.0568,0.0559,0.0687,0.069,0.0692,0.0693,0.0694,0,-0.0752,-0.078,-0.0815,-0.0844,-0.0848,-0.086,-0.0861,-0.079,-0.0757,-0.0607,-0.0576,-0.0383,-0.0219,0.0111,0.0335,0.0572,0.0559,0.0661,0.0639,0.0573,0.0598,0.0586,0.0574,0.0634,0.0635,0.0635,0.0636,0,-0.0822,-0.0831,-0.0866,-0.0931,-0.0954,-0.0975,-0.096,-0.0947,-0.0837,-0.0743,-0.0574,-0.0425,-0.0098,0.018,0.0473,0.0594,0.0619,0.0682,0.0659,0.0573,0.0532,0.0553,0.0542,0.0641,0.0641,0.064,0.064,0.064,-0.0868,-0.0914,-0.0958,-0.1014,-0.1048,-0.1067,-0.1069,-0.1004,-0.0926,-0.0745,-0.059,-0.0318,-0.0068,0.0376,0.0564,0.0722,0.0718,0.0744,0.0739,0.0734,0.0705,0.0669,0.0798,0.0798,0.0799,0.0799,0.0799,0,-0.0924,-0.097,-0.1036,-0.1097,-0.114,-0.1132,-0.1114,-0.1075,-0.096,-0.0752,-0.0536,-0.0207,0.0127,0.0372,0.0649,0.081,0.0775,0.0804,0.0729,0.0724,0.0718,0.0686,0.0776,0.0776,0.0777,0.0777,0,0,-0.0955,-0.103,-0.1064,-0.1153,-0.119,-0.1215,-0.1198,-0.1108,-0.0965,-0.0735,-0.0491,-0.0174,0.0141,0.0335,0.0522,0.0654,0.0628,0.0647,0.0646,0.0525,0.0517,0.0666,0.0608,0,0,0,0,0]}],[{"header":{"parameterUnit":"m.s-1","parameterCategory":2,"la1":30.2991,"la2":30.254,"lo1":-89.0895,"lo2":-89.0444,"dy":0.0017,"dx":0.0017,"nx":28,"ny":28,"refTime":"2024-06-04T09:00:00:Z","depth":"4","parameterNumber":2,"parameterNumberName":"U-component_of_CURRENTS"},"data":[0,0,0,0,0,0,0,0,0,0,0,0,0,0,0,0,0,0,0,0,0,0,0,0,0,0,0,0,0,0,0,0,0,0,0,0,0,0,0,0,0,0,0,0,0,0,0,0,0,0,0,0,0,0,0,0,0,0,-0.1605,-0.1606,0,-0.168,-0.1681,-0.1682,-0.172,-0.172,-0.172,-0.1721,-0.1772,-0.1774,-0.1775,0,0,0,0,0,0,0,0,0,0,0,0,0,-0.1486,-0.1487,-0.1605,-0.1606,-0.1608,-0.168,-0.1681,-0.1682,-0.172,-0.172,-0.172,-0.1721,-0.1772,-0.1773,-0.1775,0,0,0,0,0,0,0,0,0,0,0,0,0,-0.1545,-0.1488,-0.1605,-0.1637,-0.1641,-0.168,-0.1681,-0.1682,-0.172,-0.172,-0.1721,-0.1721,-0.1772,-0.1773,-0.1775,-0.1779,0,0,-0.178,-0.1781,0,0,0,0,0,0,0,0,-0.1541,-0.1549,-0.1631,-0.1635,-0.1639,-0.1693,-0.1658,-0.1714,-0.172,-0.1687,-0.1721,-0.1721,-0.1745,-0.1749,-0.1759,-0.1781,-0.1783,-0.1781,-0.1782,-0.1782,-0.1783,0,0,0,0,0,0,0,-0.1537,-0.1546,-0.1633,-0.1632,-0.1637,-0.1645,-0.1653,-0.1669,-0.1711,-0.169,-0.1694,-0.1706,-0.1747,-0.1758,-0.1761,-0.1784,-0.178,-0.1782,-0.1783,-0.1784,-0.1878,-0.188,0,0,0,0,0,0,-0.1533,-0.1542,-0.163,-0.1635,-0.1593,-0.1647,-0.1656,-0.1674,-0.1712,-0.1719,-0.1705,-0.1707,-0.1754,-0.1759,-0.1763,-0.1836,-0.1782,-0.1784,-0.1785,-0.1877,-0.1879,-0.188,0,0,0,0,0,0,-0.153,-0.154,-0.1627,-0.1592,-0.1603,-0.1649,-0.1668,-0.1675,-0.1715,-0.1724,-0.173,-0.1741,-0.1755,-0.176,-0.1806,-0.1836,-0.1785,-0.1786,-0.1875,-0.1877,-0.1879,-0.194,0,0,0,0,0,0,-0.1526,-0.1539,-0.1563,-0.1592,-0.1606,-0.1671,-0.1668,-0.1676,-0.1721,-0.1725,-0.1756,-0.1759,-0.1756,-0.1803,-0.1807,-0.1837,-0.1788,-0.1873,-0.1876,-0.1879,-0.1936,-0.1944,-0.1951,0,0,0,0,0,-0.1522,-0.155,-0.1564,-0.1575,-0.1633,-0.1672,-0.1681,-0.1711,-0.1722,-0.1747,-0.1771,-0.176,-0.1823,-0.1806,-0.1811,-0.1842,-0.1872,-0.1875,-0.1878,-0.1933,-0.1943,-0.1951,0,0,0,0,0,0,-0.1511,-0.1557,-0.1573,-0.1615,-0.1651,-0.168,-0.171,-0.1729,-0.1768,-0.1779,-0.1782,-0.1788,-0.1838,-0.1833,-0.1814,-0.1877,-0.1844,-0.1849,-0.1884,-0.1893,-0.1901,-0.1891,-0.1789,0,0,0,0,0,-0.1519,-0.1554,-0.1594,-0.163,-0.1651,-0.1686,-0.1711,-0.1734,-0.1765,-0.1784,-0.1807,-0.1828,-0.185,-0.1868,-0.1885,-0.1922,-0.1898,-0.1944,-0.1951,-0.1957,-0.1953,-0.1951,-0.1957,-0.1891,-0.1891,-0.1891,0,0,-0.1525,-0.1556,-0.1577,-0.1631,-0.1661,-0.17,-0.1703,-0.1751,-0.1789,-0.1782,-0.1846,-0.1859,-0.1867,-0.1909,-0.193,-0.1913,-0.1964,-0.1962,-0.1967,-0.1959,-0.1955,-0.1961,-0.1966,-0.1893,-0.1893,-0.1892,0,0,-0.1544,-0.1583,-0.1616,-0.1652,-0.1707,-0.173,-0.1751,-0.1799,-0.1829,-0.1885,-0.1889,-0.1922,-0.1962,-0.1971,-0.1978,-0.2036,-0.2003,-0.2047,-0.2077,-0.2075,-0.208,-0.2084,-0.2058,-0.2059,-0.2049,-0.205,-0.205,0,-0.1551,-0.1598,-0.1632,-0.1674,-0.1709,-0.1747,-0.1789,-0.1825,-0.1884,-0.1907,-0.1915,-0.1975,-0.1987,-0.2024,-0.2046,-0.2052,-0.2036,-0.2043,-0.2084,-0.2087,-0.209,-0.2062,-0.2063,-0.2053,-0.2052,-0.2052,-0.2052,0,-0.1587,-0.1637,-0.1662,-0.1727,-0.1767,-0.1812,-0.1862,-0.1908,-0.1947,-0.1973,-0.203,-0.2049,-0.2076,-0.2092,-0.209,-0.2123,-0.2099,-0.2093,-0.2058,-0.21,-0.2068,-0.2068,-0.2058,-0.2056,-0.2055,-0.2055,0,0,-0.1564,-0.1668,-0.1678,-0.1717,-0.18,-0.1831,-0.1901,-0.196,-0.1997,-0.2053,-0.2091,-0.214,-0.2144,-0.2152,-0.2155,-0.216,-0.2173,-0.2141,-0.214,-0.2108,-0.2152,-0.2015,-0.2,-0.2175,-0.2176,-0.2176,-0.2119,0,-0.1583,-0.1662,-0.1713,-0.1789,-0.1831,-0.1892,-0.1948,-0.2008,-0.2054,-0.2099,-0.2125,-0.2163,-0.2168,-0.2183,-0.2192,-0.2178,-0.2175,-0.2187,-0.2121,-0.2118,-0.1986,-0.1996,-0.2178,-0.2118,-0.2118,-0.2118,-0.2118,0,-0.1592,-0.1647,-0.1725,-0.1818,-0.1843,-0.1896,-0.1979,-0.2032,-0.21,-0.2135,-0.2175,-0.2192,-0.2219,-0.2212,-0.2206,-0.2214,-0.2189,-0.2172,-0.2169,-0.2015,-0.1979,-0.2068,-0.2116,-0.2116,-0.2116,-0.2116,-0.2116,0,-0.1539,-0.1649,-0.171,-0.1746,-0.1858,-0.1906,-0.1963,-0.2043,-0.2085,-0.2151,-0.2179,-0.2213,-0.2226,-0.2216,-0.2192,-0.2202,-0.216,-0.2166,-0.2015,-0.2004,-0.2119,-0.2115,-0.2151,-0.2151,-0.2151,-0.2151,-0.2151,0,-0.1521,-0.1572,-0.1696,-0.1729,-0.1796,-0.1883,-0.1952,-0.2011,-0.2089,-0.2116,-0.2187,-0.2194,-0.223,-0.2214,-0.2189,-0.2084,-0.2156,-0.2006,-0.1978,-0.2146,-0.2146,-0.2118,-0.2115,-0.2149,-0.2149,-0.215,-0.215,0,-0.1447,-0.1535,-0.1608,-0.1734,-0.1775,-0.182,-0.1942,-0.1977,-0.2067,-0.2101,-0.2122,-0.2182,-0.2146,-0.2152,-0.2118,-0.2057,-0.1988,-0.1934,-0.2095,-0.2079,-0.1833,-0.1835,-0.1752,-0.1747,-0.1742,-0.1738,-0.1735,0,-0.1414,-0.1449,-0.1588,-0.1626,-0.1689,-0.1775,-0.1825,-0.1945,-0.1973,-0.2065,-0.2054,-0.2071,-0.2084,-0.1916,-0.1947,-0.1867,-0.1852,-0.1812,-0.1839,-0.1811,-0.1792,-0.1801,-0.1808,-0.1728,-0.1727,-0.1726,-0.1724,0,-0.1337,-0.14,-0.1455,-0.1538,-0.1605,-0.167,-0.1748,-0.1762,-0.1871,-0.1975,-0.1925,-0.1896,-0.1846,-0.1804,-0.1751,-0.1705,-0.1838,-0.1765,-0.1774,-0.1799,-0.178,-0.1769,-0.1781,-0.1709,-0.1711,-0.1712,-0.1713,0,-0.1269,-0.1286,-0.1362,-0.1416,-0.1498,-0.1523,-0.1595,-0.1619,-0.1665,-0.1774,-0.1745,-0.1761,-0.1815,-0.1717,-0.1669,-0.1607,-0.1589,-0.1553,-0.1574,-0.1592,-0.1566,-0.1521,-0.133,0,0,0,0,0,-0.119,-0.1187,-0.123,-0.1281,-0.1357,-0.1393,-0.1514,-0.1587,-0.17,-0.1616,-0.1678,-0.1621,-0.155,-0.1564,-0.1461,-0.1594,-0.1597,-0.147,-0.1568,-0.1621,-0.1639,-0.1624,0,0,0,0,0,0,-0.1133,-0.1166,-0.1177,-0.1145,-0.1145,-0.1208,-0.1274,-0.1363,-0.1333,-0.1452,-0.1414,-0.1506,-0.1452,-0.155,-0.141,-0.1415,-0.1444,-0.1494,-0.149,-0.1611,-0.1627,-0.1642,-0.1633,0,0,0,0,0]},{"header":{"parameterUnit":"m.s-1","parameterCategory":2,"la1":30.2991,"la2":30.254,"lo1":-89.0895,"lo2":-89.0444,"dy":0.0017,"dx":0.0017,"nx":28,"ny":28,"refTime":"2024-06-04T09:00:00:Z","depth":"4","parameterNumber":3,"parameterNumberName":"V-component_of_CURRENTS"},"data":[0,0,0,0,0,0,0,0,0,0,0,0,0,0,0,0,0,0,0,0,0,0,0,0,0,0,0,0,0,0,0,0,0,0,0,0,0,0,0,0,0,0,0,0,0,0,0,0,0,0,0,0,0,0,0,0,0,0,-0.015,-0.0149,0,-0.0087,-0.0086,-0.0085,-0.0045,-0.0045,-0.0044,-0.0044,0.0064,0.0067,0.007,0,0,0,0,0,0,0,0,0,0,0,0,0,-0.0191,-0.019,-0.015,-0.0149,-0.0148,-0.0087,-0.0086,-0.0085,-0.0045,-0.0045,-0.0044,-0.0044,0.0063,0.0066,0.007,0,0,0,0,0,0,0,0,0,0,0,0,0,-0.0154,-0.019,-0.015,-0.0122,-0.0119,-0.0087,-0.0086,-0.0085,-0.0045,-0.0044,-0.0044,-0.0044,0.0062,0.0066,0.007,0.0093,0,0,0.0083,0.0085,0,0,0,0,0,0,0,0,-0.0156,-0.0152,-0.0127,-0.0124,-0.012,-0.0075,-0.0061,-0.0024,-0.0045,-0.0071,-0.0044,-0.0044,0.0021,0.0028,0.0041,0.0098,0.0102,0.0083,0.0086,0.0088,0.0089,0,0,0,0,0,0,0,-0.0159,-0.0154,-0.0123,-0.0126,-0.0122,-0.0098,-0.0092,-0.0053,-0.0025,-0.0069,-0.0066,-0.0062,0.0023,0.0037,0.0044,0.0104,0.0083,0.0087,0.0089,0.0091,0.0191,0.0191,0,0,0,0,0,0,-0.0172,-0.0157,-0.0125,-0.0122,-0.014,-0.0097,-0.0091,-0.0088,-0.0026,-0.0017,-0.0062,-0.006,0.003,0.0039,0.0048,0.0076,0.0088,0.0092,0.0094,0.0191,0.0191,0.0191,0,0,0,0,0,0,-0.0173,-0.017,-0.0128,-0.0139,-0.0132,-0.0097,-0.0094,-0.0087,-0.0075,-0.0022,-0.0012,-0.0057,0.003,0.0042,0.0082,0.0081,0.0093,0.0097,0.0191,0.0191,0.0191,0.0134,0,0,0,0,0,0,-0.0174,-0.0171,-0.0175,-0.014,-0.0132,-0.0115,-0.0094,-0.0086,-0.0073,-0.007,-0.0014,-0.0003,0.0031,0.0075,0.0086,0.0087,0.01,0.019,0.0191,0.0191,0.0136,0.0133,0.013,0,0,0,0,0,-0.0176,-0.0183,-0.0175,-0.0172,-0.0138,-0.0116,-0.0109,-0.0082,-0.0073,-0.007,-0.003,-0.0005,0.0084,0.0079,0.0091,0.0093,0.019,0.0191,0.0191,0.0137,0.0133,0.013,0,0,0,0,0,0,-0.0203,-0.0179,-0.017,-0.0169,-0.0148,-0.0109,-0.0106,-0.0087,-0.0054,-0.0051,-0.0001,0.0012,0.0044,0.0079,0.0071,0.0123,0.0141,0.0144,0.0096,0.0092,0.0089,0.0074,0.0104,0,0,0,0,0,-0.0212,-0.0212,-0.0182,-0.0184,-0.0175,-0.0142,-0.0131,-0.0112,-0.0079,-0.0065,-0.0026,0.0017,0.0056,0.0081,0.0117,0.015,0.0184,0.0159,0.0156,0.0153,0.0149,0.0204,0.0206,0.0192,0.0192,0.0192,0,0,-0.0224,-0.0211,-0.0211,-0.019,-0.0172,-0.0164,-0.0135,-0.0122,-0.0112,-0.0057,-0.0034,0.0006,0.0061,0.0093,0.0111,0.0123,0.0174,0.0153,0.015,0.0149,0.0205,0.0206,0.0207,0.0192,0.0192,0.0192,0,0,-0.025,-0.0236,-0.0246,-0.0229,-0.0208,-0.0185,-0.0184,-0.0149,-0.0131,-0.0102,-0.0062,-0.0022,0.0035,0.0076,0.0104,0.0108,0.0151,0.0118,0.0096,0.0149,0.015,0.0152,0.0188,0.0194,0.0121,0.0121,0.0121,0,-0.0268,-0.0273,-0.0245,-0.0246,-0.0239,-0.0198,-0.0204,-0.0177,-0.0133,-0.0118,-0.0103,-0.0017,0.0028,0.0076,0.0076,0.0101,0.0131,0.0103,0.0144,0.0146,0.0149,0.0186,0.0193,0.0118,0.0119,0.0119,0.0119,0,-0.0294,-0.0301,-0.0305,-0.0295,-0.028,-0.0279,-0.024,-0.0223,-0.0197,-0.0166,-0.012,-0.0056,-0.0004,0.0018,0.0049,0.009,0.0105,0.0128,0.015,0.0147,0.0186,0.0194,0.0114,0.0115,0.0116,0.0117,0,0,-0.0334,-0.0328,-0.0332,-0.034,-0.0307,-0.0302,-0.0283,-0.0256,-0.0245,-0.0193,-0.017,-0.0099,-0.0063,-0.0028,0.0021,0.007,0.0114,0.0101,0.0105,0.0129,0.022,0.0202,0.021,0.0144,0.0145,0.0146,0.0236,0,-0.0369,-0.0395,-0.0374,-0.0396,-0.0404,-0.0361,-0.0348,-0.0313,-0.0273,-0.0237,-0.0163,-0.0121,-0.0079,-0.0053,0.0001,0.0088,0.0134,0.0087,0.0226,0.023,0.0209,0.0218,0.0151,0.0242,0.0244,0.0245,0.0246,0,-0.0402,-0.0417,-0.0448,-0.0452,-0.0451,-0.0452,-0.0426,-0.0409,-0.034,-0.0306,-0.0245,-0.0183,-0.0102,-0.0068,0.0075,0.0042,0.012,0.0188,0.0194,0.0203,0.0227,0.025,0.0262,0.026,0.0259,0.0258,0.0257,0,-0.0449,-0.047,-0.0502,-0.0501,-0.0492,-0.0497,-0.0488,-0.0434,-0.0416,-0.0347,-0.0319,-0.0218,-0.0159,-0.0049,0.0091,0.0085,0.0248,0.0262,0.0319,0.0319,0.0332,0.0329,0.0358,0.0358,0.0358,0.0358,0.0357,0,-0.0488,-0.0517,-0.0532,-0.0548,-0.0587,-0.0553,-0.0567,-0.0539,-0.0483,-0.0454,-0.0362,-0.0305,-0.015,-0.0033,0.0082,0.0224,0.0245,0.0314,0.0343,0.0305,0.0298,0.0337,0.0334,0.0361,0.036,0.036,0.0359,0,-0.053,-0.0539,-0.0583,-0.06,-0.0611,-0.0637,-0.0632,-0.0627,-0.057,-0.0526,-0.0503,-0.0362,-0.0211,-0.0057,0.0135,0.0211,0.035,0.0396,0.0334,0.0359,0.0383,0.0376,0.0458,0.0458,0.0458,0.0458,0.0458,0,-0.0552,-0.0579,-0.0635,-0.0671,-0.0685,-0.0714,-0.0727,-0.0682,-0.066,-0.0549,-0.0522,-0.0373,-0.0267,-0.0008,0.0143,0.0348,0.0376,0.0434,0.0411,0.0375,0.0395,0.0387,0.038,0.0458,0.0458,0.0459,0.0459,0,-0.0595,-0.0619,-0.0657,-0.0735,-0.0773,-0.0805,-0.0809,-0.0796,-0.0719,-0.0668,-0.0514,-0.0365,-0.0197,-0.0003,0.0154,0.0303,0.0387,0.0436,0.0436,0.0415,0.0377,0.0395,0.0388,0.0459,0.0459,0.0459,0.0459,0,-0.0629,-0.0671,-0.0727,-0.079,-0.0849,-0.0874,-0.0869,-0.0809,-0.0768,-0.0622,-0.0568,-0.0367,-0.0237,-0.0024,0.0127,0.0261,0.0288,0.032,0.0327,0.0328,0.0258,0.0188,0.0239,0,0,0,0,0,-0.0655,-0.0705,-0.0775,-0.0844,-0.0901,-0.0925,-0.0912,-0.0882,-0.0799,-0.0693,-0.0621,-0.0451,-0.0199,-0.0081,0.0051,0.0093,0.0278,0.0247,0.0308,0.0462,0.0462,0.04,0,0,0,0,0,0,-0.0675,-0.0746,-0.0781,-0.0871,-0.0922,-0.0969,-0.0959,-0.0901,-0.0818,-0.0712,-0.057,-0.0448,-0.0206,-0.0282,0.0042,0.0085,0.0137,0.038,0.0382,0.0463,0.0462,0.0462,0.0398,0,0,0,0,0]}]]